TOURFACTS.DK  
Stats and Facts from Tour de France.

Tour de France 2019 starts in 320 days
  Riders   Stages   Teams   Summits   Yearly  


 
Search by year

After 2018 - Stage 21:
 15000 starters.
  5165 different riders.
  638 teams.
  2253 stages.
  456 restdays.
  442940.60 km.
  5684 abandonnees.


Top 3
GC
Geraint Thomas83:17:13
Tom Dumoulin83:19:04
Christopher Froome83:19:37
Climb
Julian Alaphilippe170 pt.
Warren Barguil91 pt.
Rafal Majka76 pt.
Sprint
Peter Sagan477 pt.
Alexander Kristoff246 pt.
Arnaud Démare203 pt.
Youth
Pierre-Roger Latou..83:39:26
Egan Bernal83:45:05
Guillaume Martin84:01:31
Facts from Tour de France 2016
  |   Stages.  |   Stage winners.  |   Days in yellow  |   Average speed.  |   Route.  |   Teams.  |   All riders.  |   Rookies.  |  

  |   Withdrawls.  |   GC.  |   Polka  |   Green  |   White  |   Summits. (In tour)  |   Miscellaneous.  |  

Stage 2 on 03 - 07 - 2016
         Owning:    Peter Sagan      Jasper Stuyven      Peter Sagan      Julian Alaphilippe  

Pick a stage:  1 2 3 4 5 6 7 8 9 10 11 12 13 14 15 16 17 18 19 20 21
  Saint-LôCherbourg-Octeville | Dist: 182.00 km.
Cat: 4Côte de Torigny-les-VillesNORVegard Breen1 points 
Cat: 4Côte de MontabotBELJasper Stuyven1 points 
Cat: 4Côte de MontpinchonBELJasper Stuyven1 points 
Cat: 3Côte de La GlacerieBELJasper Stuyven2 points 

Average speed for all riders in stage:  41,288 km./hr.
    Place:Name:Team:Time:Km/h:
1
SVKPeter SaganRUSTinkoff04:20:51  +  00:00:00=41,863 
2
FRAJulian AlaphilippeBELEtixx - Quick Step04:20:51  +  00:00:00=41,863 
3
ESPAlejandro ValverdeESPMovistar Team04:20:51  +  00:00:00=41,863 
44 ENGDaniel MartinBELEtixx - Quick Step04:20:51  +  00:00:00=41,863 
55 AUSMichael MatthewsAUSORICA BikeExchange04:20:51  +  00:00:00=41,863 
66 NEDWilco KeldermanNLDTeam Lotto NL - Jumbo04:20:51  +  00:00:00=41,863 
77 FRATony GallopinBELLotto Soudal04:20:51  +  00:00:00=41,863 
88 BELGreg Van AvermaetUSABMC Racing Team04:20:51  +  00:00:00=41,863 
99 NEDBauke MollemaUSATrek - Segafredo04:20:51  +  00:00:00=41,863 
1010 KENChristopher FroomeGBRSky Procycling04:20:51  +  00:00:00=41,863 
1111 AUSSimon GerransAUSORICA BikeExchange04:20:51  +  00:00:00=41,863 
1212 FRAPierre RollandUSATeam Cannondale Drapac04:20:51  +  00:00:00=41,863 
1313 ENGAdam YatesAUSORICA BikeExchange04:20:51  +  00:00:00=41,863 
1414 FRAWarren BarguilDEUTeam Giant Alpecin04:20:51  +  00:00:00=41,863 
1515 ESPJoaquim RodriguezRUSTeam Katusha04:20:51  +  00:00:00=41,863 
1616 ITAFabio AruKAZAstana Pro Team04:20:51  +  00:00:00=41,863 
1717 COLNairo QuintanaESPMovistar Team04:20:51  +  00:00:00=41,863 
1818 PORRui CostaITALampre-Merida04:20:51  +  00:00:00=41,863 
1919 USATejay Van GarderenUSABMC Racing Team04:20:51  +  00:00:00=41,863 
2020 BELJurgen Van Den BroeckRUSTeam Katusha04:20:51  +  00:00:00=41,863 
2121 ESPMikel Landa MeanaGBRSky Procycling04:20:51  +  00:00:00=41,863 
2222 FRAArthur VichotFRAFDJ04:20:51  +  00:00:00=41,863 
2323 CZERoman KreuzigerRUSTinkoff04:20:51  +  00:00:00=41,863 
2424 FRARomain BardetFRAAg2r La Mondiale04:20:51  +  00:00:00=41,863 
2525 NEDTom DumoulinDEUTeam Giant Alpecin04:20:51  +  00:00:00=41,863 
2626 COLSergio Luis HenaoGBRSky Procycling04:20:51  +  00:00:00=41,863 
2727 SUIMathias FrankCHEIAM Cycling04:21:01  +  00:00:10=41,836 
2828 SUISébastien ReichenbachFRAFDJ04:21:02  +  00:00:11=41,834 
2929 ITAVincenzo NibaliKAZAstana Pro Team04:21:02  +  00:00:11=41,834 
3030 FRAThibaut PinotFRAFDJ04:21:02  +  00:00:11=41,834 
3131 RSALouis MeintjesITALampre-Merida04:21:02  +  00:00:11=41,834 
3232 COLJarlinson Pantano GomezCHEIAM Cycling04:21:02  +  00:00:11=41,834 
3333 FRAAlexis VuillermozFRAAg2r La Mondiale04:21:06  +  00:00:15=41,823 
3434 ESPLuis León SánchezKAZAstana Pro Team04:21:06  +  00:00:15=41,823 
3535 USALawson CraddockUSATeam Cannondale Drapac04:21:08  +  00:00:17=41,818 
3636 ESPHaimar ZubeldiaUSATrek - Segafredo04:21:08  +  00:00:17=41,818 
3737 NEDTom-Jelte SlagterUSATeam Cannondale Drapac04:21:08  +  00:00:17=41,818 
3838 BELSerge PauwelsZAFDimension Data04:21:08  +  00:00:17=41,818 
3939 AUTPatrick KonradDEUBora-Argon 1804:21:08  +  00:00:17=41,818 
4040 GEREmanuel BuchmannDEUBora-Argon 1804:21:08  +  00:00:17=41,818 
4141 ARGEduardo SepulvedaFRAFortuneo - Vital Concept04:21:08  +  00:00:17=41,818 
4242 URSTanel KangertKAZAstana Pro Team04:21:08  +  00:00:17=41,818 
4343 ESPJesus HerradaESPMovistar Team04:21:12  +  00:00:21=41,807 
4444 FRARomain SicardFRADirect Energie04:21:08  +  00:00:17=41,818 
4545 FRACyril GautierFRAAg2r La Mondiale04:21:12  +  00:00:21=41,807 
4646 WALGeraint ThomasGBRSky Procycling04:21:15  +  00:00:24=41,799 
4747 ESPLuis Angel MateFRACofidis – Solutions Crédits04:21:17  +  00:00:26=41,794 
4848 FRAArnold JeannessonFRACofidis – Solutions Crédits04:21:17  +  00:00:26=41,794 
4949 LUXFränk SchleckUSATrek - Segafredo04:21:23  +  00:00:32=41,778 
5050 SLOJan PolancITALampre-Merida04:21:26  +  00:00:35=41,770 
5151 SUISteve MorabitoFRAFDJ04:21:26  +  00:00:35=41,770 
5252 ESPAlberto LosadaRUSTeam Katusha04:21:26  +  00:00:35=41,770 
5353 BELJan BakelantsFRAAg2r La Mondiale04:21:26  +  00:00:35=41,770 
5454 ESPDaniel MorenoESPMovistar Team04:21:26  +  00:00:35=41,770 
5555 ESPMikel NieveGBRSky Procycling04:21:32  +  00:00:41=41,754 
5656 FRASamuel DumoulinFRAAg2r La Mondiale04:21:32  +  00:00:41=41,754 
5757 FRABrice FeilluFRAFortuneo - Vital Concept04:21:32  +  00:00:41=41,754 
5858 FRAFabrice JeandesbozFRADirect Energie04:21:32  +  00:00:41=41,754 
5959 RUSIlnur ZakarinRUSTeam Katusha04:21:32  +  00:00:41=41,754 
6060 HRVRobert KiserlovskiRUSTinkoff04:21:39  +  00:00:48=41,735 
6161 ESPAlberto ContadorRUSTinkoff04:21:39  +  00:00:48=41,735 
6262 FRAMickaël CherelFRAAg2r La Mondiale04:21:39  +  00:00:48=41,735 
6363 NEDLaurens ten DamDEUTeam Giant Alpecin04:21:39  +  00:00:48=41,735 
6464 USAPeter StetinaUSATrek - Segafredo04:21:39  +  00:00:48=41,735 
6565 BRAMaximilano RichezeBELEtixx - Quick Step04:21:39  +  00:00:48=41,735 
6666 BELJasper StuyvenUSATrek - Segafredo04:21:48  +  00:00:57=41,711 
6767 FRASylvain ChavanelFRADirect Energie04:21:58  +  00:01:07=41,685 
6868 FRABryan CoquardFRADirect Energie04:21:58  +  00:01:07=41,685 
6969 FRAPierre-Luc PérichonFRAFortuneo - Vital Concept04:22:04  +  00:01:13=41,669 
7070 AUTGeorg PreidlerDEUTeam Giant Alpecin04:22:04  +  00:01:13=41,669 
7171 GERSimon GeschkeDEUTeam Giant Alpecin04:22:04  +  00:01:13=41,669 
7272 NOREdvald Boasson HagenZAFDimension Data04:22:13  +  00:01:22=41,645 
7373 NORSondre Holst EngerCHEIAM Cycling04:22:13  +  00:01:22=41,645 
7474 SUIFabian CancellaraUSATrek - Segafredo04:22:19  +  00:01:28=41,629 
7575 ESPJon Izaguirre InsaustiESPMovistar Team04:22:30  +  00:01:39=41,600 
7676 BELEdward TheunsUSATrek - Segafredo04:22:30  +  00:01:39=41,600 
7777 BELOliver NaesenCHEIAM Cycling04:22:30  +  00:01:39=41,600 
7878 SUIMichael AlbasiniAUSORICA BikeExchange04:22:30  +  00:01:39=41,600 
7979 FRAAnthony RouxFRAFDJ04:22:30  +  00:01:39=41,600 
8080 SLOLuka PibernikITALampre-Merida04:22:30  +  00:01:39=41,600 
8181 AUSRichie PorteUSABMC Racing Team04:22:36  +  00:01:45=41,584 
8282 ITADomenico PozzovivoFRAAg2r La Mondiale04:22:36  +  00:01:45=41,584 
8383 BELSep VanmarckeNLDTeam Lotto NL - Jumbo04:22:36  +  00:01:45=41,584 
8484 LUXBen GastauerFRAAg2r La Mondiale04:22:36  +  00:01:45=41,584 
8585 NEDWout PoelsGBRSky Procycling04:22:36  +  00:01:45=41,584 
8686 IOMMark CavendishZAFDimension Data04:22:36  +  00:01:45=41,584 
8787 SUIReto HollensteinCHEIAM Cycling04:22:36  +  00:01:45=41,584 
8888 FRAAngelo TulikFRADirect Energie04:22:42  +  00:01:51=41,568 
8989 RSAReinardt Janse Van RensburgZAFDimension Data04:22:57  +  00:02:06=41,529 
9090 ITADamiano CarusoUSABMC Racing Team04:23:01  +  00:02:10=41,518 
9191 NEDStef ClementCHEIAM Cycling04:23:15  +  00:02:24=41,481 
9292 UKRAndriy GrivkoKAZAstana Pro Team04:23:20  +  00:02:29=41,468 
9393 FRANicolas EdetFRACofidis – Solutions Crédits04:23:43  +  00:02:52=41,408 
9494 RSADaryl ImpeyAUSORICA BikeExchange04:23:43  +  00:02:52=41,408 
9595 FRAArmindo FonsecaFRAFortuneo - Vital Concept04:23:43  +  00:02:52=41,408 
9696 DENMichael ValgrenRUSTinkoff04:23:43  +  00:02:52=41,408 
9797 ESPMarkel IrizarUSATrek - Segafredo04:23:43  +  00:02:52=41,408 
9898 GERPaul MartensNLDTeam Lotto NL - Jumbo04:23:43  +  00:02:52=41,408 
9999 PORNelson OliveiraESPMovistar Team04:23:43  +  00:02:52=41,408 
100100 ESPGorka Izaguirre InsaustiESPMovistar Team04:23:43  +  00:02:52=41,408 
101101 DENMatti BreschelUSATeam Cannondale Drapac04:23:43  +  00:02:52=41,408 
102102 SUIJakob FuglsangKAZAstana Pro Team04:23:43  +  00:02:52=41,408 
103103 BLRVasil KiryienkaGBRSky Procycling04:23:43  +  00:02:52=41,408 
104104 FRAMatthieu LadagnousFRAFDJ04:23:43  +  00:02:52=41,408 
105105 SUIGregory RastUSATrek - Segafredo04:23:43  +  00:02:52=41,408 
106106 BELJürgen RoelandtsBELLotto Soudal04:23:43  +  00:02:52=41,408 
107107 FRAWilliam BonnetFRAFDJ04:23:43  +  00:02:52=41,408 
108108 FRAChristophe LaporteFRACofidis – Solutions Crédits04:23:43  +  00:02:52=41,408 
109109 GERPaul VossDEUBora-Argon 1804:23:58  +  00:03:07=41,369 
110110 BELJulien VermoteBELEtixx - Quick Step04:24:00  +  00:03:09=41,364 
111111 URSRamunas NavardauskasUSATeam Cannondale Drapac04:24:10  +  00:03:19=41,338 
112112 NEDSebastian LangeveldUSATeam Cannondale Drapac04:24:10  +  00:03:19=41,338 
113113 ITAPaolo TiralongoKAZAstana Pro Team04:24:15  +  00:03:24=41,325 
114114 CZEPetr VakocBELEtixx - Quick Step04:24:21  +  00:03:30=41,309 
115115 FRACyril LemoineFRACofidis – Solutions Crédits04:24:38  +  00:03:47=41,265 
116116 AUSMathew HaymanAUSORICA BikeExchange04:24:42  +  00:03:51=41,254 
117117 AUSLuke DurbridgeAUSORICA BikeExchange04:24:42  +  00:03:51=41,254 
118118 FRAAnthony DelaplaceFRAFortuneo - Vital Concept04:25:07  +  00:04:16=41,189 
119119 FRAAmaël MoinardUSABMC Racing Team04:25:07  +  00:04:16=41,189 
120120 FRAJérôme CoppelCHEIAM Cycling04:25:07  +  00:04:16=41,189 
121121 FRAGeoffrey SoupeFRACofidis – Solutions Crédits04:25:07  +  00:04:16=41,189 
122122 COLWinner AnaconaESPMovistar Team04:25:37  +  00:04:46=41,112 
123123 NEDBert-Jan LindemanNLDTeam Lotto NL - Jumbo04:25:37  +  00:04:46=41,112 
124124 GERMarcus BurghardtUSABMC Racing Team04:25:37  +  00:04:46=41,112 
125125 NEDRoy CurversDEUTeam Giant Alpecin04:25:37  +  00:04:46=41,112 
126126 FRAJérôme CousinFRACofidis – Solutions Crédits04:25:37  +  00:04:46=41,112 
127127 ITAMatteo BonoITALampre-Merida04:25:37  +  00:04:46=41,112 
128128 GERTony MartinBELEtixx - Quick Step04:25:37  +  00:04:46=41,112 
129129 ESPDaniel NavarroFRACofidis – Solutions Crédits04:25:37  +  00:04:46=41,112 
130130 BELJens DebusschereBELLotto Soudal04:25:37  +  00:04:46=41,112 
131131 NORAlexander KristoffRUSTeam Katusha04:25:37  +  00:04:46=41,112 
132132 ESPÁngel ViciosoRUSTeam Katusha04:26:36  +  00:05:45=40,960 
133133 NORVegard BreenFRAFortuneo - Vital Concept04:26:44  +  00:05:53=40,940 
134134 SUIMichael SchärUSABMC Racing Team04:26:47  +  00:05:56=40,932 
135135 USABrent BookwalterUSABMC Racing Team04:26:47  +  00:05:56=40,932 
136136 BELThomas De GendtBELLotto Soudal04:27:06  +  00:06:15=40,884 
137137 GERRobert WagnerNLDTeam Lotto NL - Jumbo04:27:42  +  00:06:51=40,792 
138138 GERJohn DegenkolbDEUTeam Giant Alpecin04:27:42  +  00:06:51=40,792 
139139 NEDRamon SinkeldamDEUTeam Giant Alpecin04:27:42  +  00:06:51=40,792 
140140 NEDAlbert TimmerDEUTeam Giant Alpecin04:27:42  +  00:06:51=40,792 
141141 FRACédric PineauFRAFDJ04:27:42  +  00:06:51=40,792 
142142 FRAJérémy RoyFRAFDJ04:27:42  +  00:06:51=40,792 
143143 ETHTsgabu Gebremaryan GrmayITALampre-Merida04:27:42  +  00:06:51=40,792 
144144 SLOKristjan KorenUSATeam Cannondale Drapac04:27:42  +  00:06:51=40,792 
145145 ITAFabio SabatiniBELEtixx - Quick Step04:27:42  +  00:06:51=40,792 
146146 ITAMatteo TosattoRUSTinkoff04:27:42  +  00:06:51=40,792 
147147 GERMarcel KittelBELEtixx - Quick Step04:27:42  +  00:06:51=40,792 
148148 AUTMarco HallerRUSTeam Katusha04:27:42  +  00:06:51=40,792 
149149 BELIljo KeisseBELEtixx - Quick Step04:27:42  +  00:06:51=40,792 
150150 AUSMark RenshawZAFDimension Data04:27:42  +  00:06:51=40,792 
151151 AUSAdam HansenBELLotto Soudal04:27:42  +  00:06:51=40,792 
152152 FRAFlorian VachonFRAFortuneo - Vital Concept04:27:42  +  00:06:51=40,792 
153153 DENChris Anker SørensenFRAFortuneo - Vital Concept04:27:42  +  00:06:51=40,792 
154154 BELMaarten WynantsNLDTeam Lotto NL - Jumbo04:27:42  +  00:06:51=40,792 
155155 ENGDaniel McLayFRAFortuneo - Vital Concept04:27:42  +  00:06:51=40,792 
156156 NEDTimo RoosenNLDTeam Lotto NL - Jumbo04:27:42  +  00:06:51=40,792 
157157 SLOBorut BozicFRACofidis – Solutions Crédits04:27:42  +  00:06:51=40,792 
158158 HRVKristijan DurasekITALampre-Merida04:27:42  +  00:06:51=40,792 
159159 CZEJan BártaDEUBora-Argon 1804:27:42  +  00:06:51=40,792 
160160 CANAntoine DuchesneFRADirect Energie04:27:42  +  00:06:51=40,792 
161161 POLBartosz HuzarskiDEUBora-Argon 1804:27:42  +  00:06:51=40,792 
162162 ITAOscar GattoRUSTinkoff04:27:42  +  00:06:51=40,792 
163163 NZLGeorge BennettNLDTeam Lotto NL - Jumbo04:27:42  +  00:06:51=40,792 
164164 FRAThomas VoecklerFRADirect Energie04:27:42  +  00:06:51=40,792 
165165 POLMaciej BodnarRUSTinkoff04:27:42  +  00:06:51=40,792 
166166 JPNYukiya ArashiroITALampre-Merida04:27:42  +  00:06:51=40,792 
167167 POLRafal MajkaRUSTinkoff04:27:42  +  00:06:51=40,792 
168168 IRLChristopher Juul JensenAUSORICA BikeExchange04:27:42  +  00:06:51=40,792 
169169 FRAYohann GèneFRADirect Energie04:27:42  +  00:06:51=40,792 
170170 SUIMartin ElmigerCHEIAM Cycling04:29:06  +  00:08:15=40,580 
171171 AUSLeigh HowardCHEIAM Cycling04:29:06  +  00:08:15=40,580 
172172 FRAAdrien PetitFRADirect Energie04:29:06  +  00:08:15=40,580 
173173 NZLGregory HendersonBELLotto Soudal04:29:06  +  00:08:15=40,580 
174174 ITADavide CimolaiITALampre-Merida04:29:06  +  00:08:15=40,580 
175175 AUSRohan DennisUSABMC Racing Team04:29:06  +  00:08:15=40,580 
176176 GERMarcel SiebergBELLotto Soudal04:29:06  +  00:08:15=40,580 
177177 FRA Alexis GougeardFRAAg2r La Mondiale04:29:06  +  00:08:15=40,580 
178178 GERAndré GreipelBELLotto Soudal04:29:06  +  00:08:15=40,580 
179179 NEDDylan Van BaarleUSATeam Cannondale Drapac04:29:06  +  00:08:15=40,580 
180180 GERAndreas SchillingerDEUBora-Argon 1804:29:06  +  00:08:15=40,580 
181181 ITAJacopo GuarnieriRUSTeam Katusha04:29:06  +  00:08:15=40,580 
182182 ESPRubén PlazaAUSORICA BikeExchange04:29:06  +  00:08:15=40,580 
183183 NEDDylan GroenewegenNLDTeam Lotto NL - Jumbo04:29:06  +  00:08:15=40,580 
184184 ESPImanol ErvitiESPMovistar Team04:29:06  +  00:08:15=40,580 
185185 USAAlex HowesUSATeam Cannondale Drapac04:29:06  +  00:08:15=40,580 
186186 ITADiego RosaKAZAstana Pro Team04:29:06  +  00:08:15=40,580 
187187 KAZAlexey LutsenkoKAZAstana Pro Team04:29:06  +  00:08:15=40,580 
188188 ERINatnael Teweldemedhin BerhaneZAFDimension Data04:29:06  +  00:08:15=40,580 
189189 DENLars BakBELLotto Soudal04:29:06  +  00:08:15=40,580 
190190 ERIDaniel TeklehaimanotZAFDimension Data04:29:06  +  00:08:15=40,580 
191191 ENGStephen CummingsZAFDimension Data04:29:06  +  00:08:15=40,580 
192192 ENGIan StannardGBRSky Procycling04:29:06  +  00:08:15=40,580 
193193 WALLuke RoweGBRSky Procycling04:29:06  +  00:08:15=40,580 
194194 AUTBernhard EiselZAFDimension Data04:29:06  +  00:08:15=40,580 
195195 ITACesare BenedettiDEUBora-Argon 1804:30:38  +  00:09:47=40,350 
196196 NZLShane ArchboldDEUBora-Argon 1804:34:30  +  00:13:39=39,781 
197197 DENMichael MørkøvRUSTeam Katusha04:34:30  +  00:13:39=39,781 
198198 BELSam BennettDEUBora-Argon 1804:37:14  +  00:16:23=39,389 

Todays birthdays.

1878  Jean Novo
1883  Jules Chabas
1890  Ange Aubry
1893  Roger Marye
1913  Paul Maye
1914  Lucien Vlaemynck
1915  Alphonse Antoine
1932  Rolf Graf
1953  Julio Rubiano
1959  Jos Haex
1959  Gerard Veldscholten
1963  Pablo Moreno
1964  Juan Castillo
1977  Iban Mayo
1994  Fernando Gaviria